STARLINK-38057

Last updated on Sun Aug 09 2026 00:02:04 GMT+0000 (Coordinated Universal Time)

1 69978U 26159D 26220.58335648 -.00333644 00000+0 -23017-2 0 9995 2 69978 97.2850 60.6036 0001466 86.0988 206.6161 15.75414560 5767
UTC large
Height (km)
Speed (km/s)
/
Latitude / Longitude
Inclination (degrees)
Orbital Period (minutes)
Azimuth
Elevation
Range (km)
Doppler Factor

Next 0 passes for location: London (51.5072 / 0.1276)

No passes found over London.
STARLINK-38057